Year,Month,Day,Hour,Minute,Value (Times are PST for temperature in C)
2008,05,23,00,00,6.90
2008,05,23,00,01,6.90
2008,05,23,00,02,6.90
2008,05,23,00,03,6.80
2008,05,23,00,04,6.80
2008,05,23,00,05,6.80
2008,05,23,00,06,6.80
2008,05,23,00,07,6.80
2008,05,23,00,08,6.80
2008,05,23,00,09,6.70
2008,05,23,00,10,6.70
2008,05,23,00,11,6.70
2008,05,23,00,12,6.60
2008,05,23,00,13,6.60
2008,05,23,00,14,6.60
2008,05,23,00,15,6.60
2008,05,23,00,16,6.60
2008,05,23,00,17,6.60
2008,05,23,00,18,6.60
2008,05,23,00,19,6.60
2008,05,23,00,20,6.60
2008,05,23,00,21,6.60
2008,05,23,00,22,6.50
2008,05,23,00,23,6.50
2008,05,23,00,24,6.60
2008,05,23,00,25,6.60
2008,05,23,00,26,6.60
2008,05,23,00,27,6.60
2008,05,23,00,28,6.60
2008,05,23,00,29,6.60
2008,05,23,00,30,6.60
2008,05,23,00,31,6.60
2008,05,23,00,32,6.60
2008,05,23,00,33,6.60
2008,05,23,00,34,6.60
2008,05,23,00,35,6.60
2008,05,23,00,36,6.50
2008,05,23,00,37,6.40
2008,05,23,00,38,6.40
2008,05,23,00,39,6.40
2008,05,23,00,40,6.40
2008,05,23,00,41,6.40
2008,05,23,00,42,6.40
2008,05,23,00,43,6.40
2008,05,23,00,44,6.40
2008,05,23,00,45,6.40
2008,05,23,00,46,6.40
2008,05,23,00,47,6.40
2008,05,23,00,48,6.40
2008,05,23,00,49,6.40
2008,05,23,00,50,6.40
2008,05,23,00,51,6.40
2008,05,23,00,52,6.40
2008,05,23,00,53,6.40
2008,05,23,00,54,6.40
2008,05,23,00,55,6.40
2008,05,23,00,56,6.40
2008,05,23,00,57,6.40
2008,05,23,00,58,6.40
2008,05,23,00,59,6.40
2008,05,23,01,00,6.40
2008,05,23,01,01,6.30
2008,05,23,01,02,6.30
2008,05,23,01,03,6.30
2008,05,23,01,04,6.30
2008,05,23,01,05,6.20
2008,05,23,01,06,6.30
2008,05,23,01,07,6.30
2008,05,23,01,08,6.30
2008,05,23,01,09,6.30
2008,05,23,01,10,6.30
2008,05,23,01,11,6.40
2008,05,23,01,12,6.30
2008,05,23,01,13,6.30
2008,05,23,01,14,6.30
2008,05,23,01,15,6.30
2008,05,23,01,16,6.30
2008,05,23,01,17,6.30
2008,05,23,01,18,6.30
2008,05,23,01,19,6.30
2008,05,23,01,20,6.30
2008,05,23,01,21,6.30
2008,05,23,01,22,6.30
2008,05,23,01,23,6.30
2008,05,23,01,24,6.30
2008,05,23,01,25,6.40
2008,05,23,01,26,6.40
2008,05,23,01,27,6.40
2008,05,23,01,28,6.40
2008,05,23,01,29,6.40
2008,05,23,01,30,6.40
2008,05,23,01,31,6.40
2008,05,23,01,32,6.40
2008,05,23,01,33,6.40
2008,05,23,01,34,6.40
2008,05,23,01,35,6.30
2008,05,23,01,36,6.30
2008,05,23,01,37,6.30
2008,05,23,01,38,6.30
2008,05,23,01,39,6.30
2008,05,23,01,40,6.20
2008,05,23,01,41,6.20
2008,05,23,01,42,6.20
2008,05,23,01,43,6.20
2008,05,23,01,44,6.20
2008,05,23,01,45,6.20
2008,05,23,01,46,6.10
2008,05,23,01,47,6.10
2008,05,23,01,48,6.10
2008,05,23,01,49,6.10
2008,05,23,01,50,6.10
2008,05,23,01,51,6.10
2008,05,23,01,52,6.10
2008,05,23,01,53,6.10
2008,05,23,01,54,6.10
2008,05,23,01,55,6.10
2008,05,23,01,56,6.10
2008,05,23,01,57,6.10
2008,05,23,01,58,6.10
2008,05,23,01,59,6.10
2008,05,23,02,00,6.00
2008,05,23,02,01,6.00
2008,05,23,02,02,6.10
2008,05,23,02,03,6.10
2008,05,23,02,04,6.10
2008,05,23,02,05,6.10
2008,05,23,02,06,6.10
2008,05,23,02,07,6.10
2008,05,23,02,08,6.10
2008,05,23,02,09,6.20
2008,05,23,02,10,6.20
2008,05,23,02,11,6.20
2008,05,23,02,12,6.20
2008,05,23,02,13,6.20
2008,05,23,02,14,6.20
2008,05,23,02,15,6.20
2008,05,23,02,16,6.20
2008,05,23,02,17,6.20
2008,05,23,02,18,6.20
2008,05,23,02,19,6.20
2008,05,23,02,20,6.20
2008,05,23,02,21,6.20
2008,05,23,02,22,6.20
2008,05,23,02,23,6.20
2008,05,23,02,24,6.10
2008,05,23,02,25,6.10
2008,05,23,02,26,6.10
2008,05,23,02,27,6.00
2008,05,23,02,28,6.00
2008,05,23,02,29,6.00
2008,05,23,02,30,6.00
2008,05,23,02,31,6.00
2008,05,23,02,32,5.90
2008,05,23,02,33,5.90
2008,05,23,02,34,5.90
2008,05,23,02,35,5.90
2008,05,23,02,36,5.90
2008,05,23,02,37,5.90
2008,05,23,02,38,5.90
2008,05,23,02,39,5.90
2008,05,23,02,40,5.80
2008,05,23,02,41,5.80
2008,05,23,02,42,5.70
2008,05,23,02,43,5.70
2008,05,23,02,44,5.70
2008,05,23,02,45,5.70
2008,05,23,02,46,5.70
2008,05,23,02,47,5.70
2008,05,23,02,48,5.70
2008,05,23,02,49,5.70
2008,05,23,02,50,5.70
2008,05,23,02,51,5.70
2008,05,23,02,52,5.70
2008,05,23,02,53,5.70
2008,05,23,02,54,5.70
2008,05,23,02,55,5.70
2008,05,23,02,56,5.80
2008,05,23,02,57,5.80
2008,05,23,02,58,5.80
2008,05,23,02,59,5.80
2008,05,23,03,00,5.80
2008,05,23,03,01,5.80
2008,05,23,03,02,5.80
2008,05,23,03,03,5.80
2008,05,23,03,04,5.70
2008,05,23,03,05,5.70
2008,05,23,03,06,5.70
2008,05,23,03,07,5.70
2008,05,23,03,08,5.70
2008,05,23,03,09,5.70
2008,05,23,03,10,5.70
2008,05,23,03,11,5.70
2008,05,23,03,12,5.70
2008,05,23,03,13,5.70
2008,05,23,03,14,5.70
2008,05,23,03,15,5.70
2008,05,23,03,16,5.70
2008,05,23,03,17,5.70
2008,05,23,03,18,5.70
2008,05,23,03,19,5.70
2008,05,23,03,20,5.70
2008,05,23,03,21,5.70
2008,05,23,03,22,5.70
2008,05,23,03,23,5.70
2008,05,23,03,24,5.70
2008,05,23,03,25,5.70
2008,05,23,03,26,5.80
2008,05,23,03,27,5.80
2008,05,23,03,28,5.80
2008,05,23,03,29,5.80
2008,05,23,03,30,5.90
2008,05,23,03,31,5.90
2008,05,23,03,32,5.90
2008,05,23,03,33,5.90
2008,05,23,03,34,5.90
2008,05,23,03,35,5.90
2008,05,23,03,36,6.00
2008,05,23,03,37,6.00
2008,05,23,03,38,6.00
2008,05,23,03,39,6.00
2008,05,23,03,40,6.00
2008,05,23,03,41,6.00
2008,05,23,03,42,6.10
2008,05,23,03,43,6.10
2008,05,23,03,44,6.10
2008,05,23,03,45,6.10
2008,05,23,03,46,6.10
2008,05,23,03,47,6.10
2008,05,23,03,48,6.10
2008,05,23,03,49,6.10
2008,05,23,03,50,6.10
2008,05,23,03,51,6.10
2008,05,23,03,52,6.10
2008,05,23,03,53,6.10
2008,05,23,03,54,6.00
2008,05,23,03,55,6.00
2008,05,23,03,56,6.00
2008,05,23,03,57,6.00
2008,05,23,03,58,6.00
2008,05,23,03,59,6.00
2008,05,23,04,00,6.00
2008,05,23,04,01,6.00
2008,05,23,04,02,6.00
2008,05,23,04,03,6.00
2008,05,23,04,04,6.00
2008,05,23,04,05,6.00
2008,05,23,04,06,6.00
2008,05,23,04,07,5.90
2008,05,23,04,08,5.90
2008,05,23,04,09,5.90
2008,05,23,04,10,5.80
2008,05,23,04,11,5.80
2008,05,23,04,12,5.70
2008,05,23,04,13,5.70
2008,05,23,04,14,5.70
2008,05,23,04,15,5.70
2008,05,23,04,16,5.70
2008,05,23,04,17,5.70
2008,05,23,04,18,5.60
2008,05,23,04,19,5.50
2008,05,23,04,20,5.50
2008,05,23,04,21,5.50
2008,05,23,04,22,5.50
2008,05,23,04,23,5.50
2008,05,23,04,24,5.40
2008,05,23,04,25,5.40
2008,05,23,04,26,5.40
2008,05,23,04,27,5.40
2008,05,23,04,28,5.40
2008,05,23,04,29,5.40
2008,05,23,04,30,5.40
2008,05,23,04,31,5.40
2008,05,23,04,32,5.40
2008,05,23,04,33,5.40
2008,05,23,04,34,5.40
2008,05,23,04,35,5.50
2008,05,23,04,36,5.50
2008,05,23,04,37,5.50
2008,05,23,04,38,5.50
2008,05,23,04,39,5.50
2008,05,23,04,40,5.50
2008,05,23,04,41,5.50
2008,05,23,04,42,5.50
2008,05,23,04,43,5.50
2008,05,23,04,44,5.40
2008,05,23,04,45,5.40
2008,05,23,04,46,5.40
2008,05,23,04,47,5.40
2008,05,23,04,48,5.30
2008,05,23,04,49,5.40
2008,05,23,04,50,5.40
2008,05,23,04,51,5.30
2008,05,23,04,52,5.30
2008,05,23,04,53,5.30
2008,05,23,04,54,5.30
2008,05,23,04,55,5.30
2008,05,23,04,56,5.30
2008,05,23,04,57,5.30
2008,05,23,04,58,5.30
2008,05,23,04,59,5.30
2008,05,23,05,00,5.20
2008,05,23,05,01,5.20
2008,05,23,05,02,5.20
2008,05,23,05,03,5.20
2008,05,23,05,04,5.20
2008,05,23,05,05,5.20
2008,05,23,05,06,5.20
2008,05,23,05,07,5.20
2008,05,23,05,08,5.20
2008,05,23,05,09,5.20
2008,05,23,05,10,5.10
2008,05,23,05,11,5.10
2008,05,23,05,12,5.10
2008,05,23,05,13,5.10
2008,05,23,05,14,5.10
2008,05,23,05,15,5.10
2008,05,23,05,16,5.10
2008,05,23,05,17,5.10
2008,05,23,05,18,5.10
2008,05,23,05,19,5.20
2008,05,23,05,20,5.10
2008,05,23,05,21,5.10
2008,05,23,05,22,5.10
2008,05,23,05,23,5.10
2008,05,23,05,24,5.10
2008,05,23,05,25,5.10
2008,05,23,05,26,5.10
2008,05,23,05,27,5.10
2008,05,23,05,28,5.10
2008,05,23,05,29,5.10
2008,05,23,05,30,5.10
2008,05,23,05,31,5.20
2008,05,23,05,32,5.20
2008,05,23,05,33,5.10
2008,05,23,05,34,5.10
2008,05,23,05,35,5.10
2008,05,23,05,36,5.10
2008,05,23,05,37,5.10
2008,05,23,05,38,5.10
2008,05,23,05,39,5.10
2008,05,23,05,40,5.10
2008,05,23,05,41,5.10
2008,05,23,05,42,5.10
2008,05,23,05,43,5.10
2008,05,23,05,44,5.10
2008,05,23,05,45,5.10
2008,05,23,05,46,5.10
2008,05,23,05,47,5.10
2008,05,23,05,48,5.10
2008,05,23,05,49,5.10
2008,05,23,05,50,5.10
2008,05,23,05,51,5.10
2008,05,23,05,52,5.10
2008,05,23,05,53,5.10
2008,05,23,05,54,5.10
2008,05,23,05,55,5.10
2008,05,23,05,56,5.10
2008,05,23,05,57,5.10
2008,05,23,05,58,5.10
2008,05,23,05,59,5.10
2008,05,23,06,00,5.20
2008,05,23,06,01,5.20
2008,05,23,06,02,5.30
2008,05,23,06,03,5.30
2008,05,23,06,04,5.30
2008,05,23,06,05,5.40
2008,05,23,06,06,5.40
2008,05,23,06,07,5.40
2008,05,23,06,08,5.50
2008,05,23,06,09,5.50
2008,05,23,06,10,5.50
2008,05,23,06,11,5.50
2008,05,23,06,12,5.50
2008,05,23,06,13,5.50
2008,05,23,06,14,5.50
2008,05,23,06,15,5.60
2008,05,23,06,16,5.60
2008,05,23,06,17,5.70
2008,05,23,06,18,5.70
2008,05,23,06,19,5.60
2008,05,23,06,20,5.60
2008,05,23,06,21,5.60
2008,05,23,06,22,5.60
2008,05,23,06,23,5.50
2008,05,23,06,24,5.50
2008,05,23,06,25,5.50
2008,05,23,06,26,5.60
2008,05,23,06,27,5.60
2008,05,23,06,28,5.60
2008,05,23,06,29,5.70
2008,05,23,06,30,5.70
2008,05,23,06,31,5.80
2008,05,23,06,32,5.90
2008,05,23,06,33,6.00
2008,05,23,06,34,6.10
2008,05,23,06,35,6.20
2008,05,23,06,36,6.20
2008,05,23,06,37,6.20
2008,05,23,06,38,6.30
2008,05,23,06,39,6.30
2008,05,23,06,40,6.30
2008,05,23,06,41,6.40
2008,05,23,06,42,6.40
2008,05,23,06,43,6.40
2008,05,23,06,44,6.40
2008,05,23,06,45,6.50
2008,05,23,06,46,6.60
2008,05,23,06,47,6.60
2008,05,23,06,48,6.70
2008,05,23,06,49,6.80
2008,05,23,06,50,6.80
2008,05,23,06,51,6.90
2008,05,23,06,52,7.00
2008,05,23,06,53,7.10
2008,05,23,06,54,7.10
2008,05,23,06,55,7.20
2008,05,23,06,56,7.30
2008,05,23,06,57,7.30
2008,05,23,06,58,7.30
2008,05,23,06,59,7.30
2008,05,23,07,00,7.30
2008,05,23,07,01,7.30
2008,05,23,07,02,7.40
2008,05,23,07,03,7.40
2008,05,23,07,04,7.40
2008,05,23,07,05,7.50
2008,05,23,07,06,7.50
2008,05,23,07,07,7.60
2008,05,23,07,08,7.70
2008,05,23,07,09,7.70
2008,05,23,07,10,7.80
2008,05,23,07,11,7.80
2008,05,23,07,12,7.90
2008,05,23,07,13,7.90
2008,05,23,07,14,8.00
2008,05,23,07,15,8.00
2008,05,23,07,16,8.10
2008,05,23,07,17,8.10
2008,05,23,07,18,8.10
2008,05,23,07,19,8.10
2008,05,23,07,20,8.10
2008,05,23,07,21,8.00
2008,05,23,07,22,8.00
2008,05,23,07,23,8.00
2008,05,23,07,24,8.00
2008,05,23,07,25,8.00
2008,05,23,07,26,8.10
2008,05,23,07,27,8.10
2008,05,23,07,28,8.20
2008,05,23,07,29,8.20
2008,05,23,07,30,8.20
2008,05,23,07,31,8.20
2008,05,23,07,32,8.20
2008,05,23,07,33,8.20
2008,05,23,07,34,8.20
2008,05,23,07,35,8.20
2008,05,23,07,36,8.30
2008,05,23,07,37,8.40
2008,05,23,07,38,8.50
2008,05,23,07,39,8.60
2008,05,23,07,40,8.70
2008,05,23,07,41,8.80
2008,05,23,07,42,8.90
2008,05,23,07,43,8.90
2008,05,23,07,44,8.90
2008,05,23,07,45,9.00
2008,05,23,07,46,9.10
2008,05,23,07,47,9.20
2008,05,23,07,48,9.30
2008,05,23,07,49,9.40
2008,05,23,07,50,9.60
2008,05,23,07,51,9.70
2008,05,23,07,52,9.70
2008,05,23,07,53,9.80
2008,05,23,07,54,9.80
2008,05,23,07,55,9.90
2008,05,23,07,56,9.90
2008,05,23,07,57,9.90
2008,05,23,07,58,10.10
2008,05,23,07,59,10.10
2008,05,23,08,00,10.20
2008,05,23,08,01,10.30
2008,05,23,08,02,10.40
2008,05,23,08,03,10.50
2008,05,23,08,04,10.60
2008,05,23,08,05,10.70
2008,05,23,08,06,10.80
2008,05,23,08,07,10.80
2008,05,23,08,08,10.90
2008,05,23,08,09,11.00
2008,05,23,08,10,11.10
2008,05,23,08,11,11.10
2008,05,23,08,12,11.20
2008,05,23,08,13,11.20
2008,05,23,08,14,11.30
2008,05,23,08,15,11.30
2008,05,23,08,16,11.40
2008,05,23,08,17,11.40
2008,05,23,08,18,11.60
2008,05,23,08,19,11.70
2008,05,23,08,20,11.80
2008,05,23,08,21,11.90
2008,05,23,08,22,12.00
2008,05,23,08,23,12.00
2008,05,23,08,24,12.10
2008,05,23,08,25,12.10
2008,05,23,08,26,12.20
2008,05,23,08,27,12.20
2008,05,23,08,28,12.20
2008,05,23,08,29,12.20
2008,05,23,08,30,12.30
2008,05,23,08,31,12.30
2008,05,23,08,32,12.40
2008,05,23,08,33,12.40
2008,05,23,08,34,12.10
2008,05,23,08,35,11.70
2008,05,23,08,36,11.30
2008,05,23,08,37,10.90
2008,05,23,08,38,10.60
2008,05,23,08,39,10.40
2008,05,23,08,40,10.30
2008,05,23,08,41,10.20
2008,05,23,08,42,10.10
2008,05,23,08,43,10.00
2008,05,23,08,44,9.90
2008,05,23,08,45,9.80
2008,05,23,08,46,9.70
2008,05,23,08,47,9.70
2008,05,23,08,48,9.70
2008,05,23,08,49,9.70
2008,05,23,08,50,9.70
2008,05,23,08,51,9.70
2008,05,23,08,52,9.70
2008,05,23,08,53,9.70
2008,05,23,08,54,9.70
2008,05,23,08,55,9.70
2008,05,23,08,56,9.80
2008,05,23,08,57,9.80
2008,05,23,08,58,9.90
2008,05,23,08,59,9.90
2008,05,23,09,00,9.90
2008,05,23,09,01,9.90
2008,05,23,09,02,10.00
2008,05,23,09,03,10.10
2008,05,23,09,04,10.10
2008,05,23,09,05,10.10
2008,05,23,09,06,10.20
2008,05,23,09,07,10.20
2008,05,23,09,08,10.20
2008,05,23,09,09,10.10
2008,05,23,09,10,10.10
2008,05,23,09,11,10.10
2008,05,23,09,12,10.10
2008,05,23,09,13,10.10
2008,05,23,09,14,10.00
2008,05,23,09,15,9.90
2008,05,23,09,16,9.80
2008,05,23,09,17,9.80
2008,05,23,09,18,9.70
2008,05,23,09,19,9.70
2008,05,23,09,20,9.70
2008,05,23,09,21,9.80
2008,05,23,09,22,9.80
2008,05,23,09,23,9.90
2008,05,23,09,24,9.90
2008,05,23,09,25,10.00
2008,05,23,09,26,10.10
2008,05,23,09,27,10.10
2008,05,23,09,28,10.20
2008,05,23,09,29,10.20
2008,05,23,09,30,10.20
2008,05,23,09,31,10.20
2008,05,23,09,32,10.20
2008,05,23,09,33,10.20
2008,05,23,09,34,10.20
2008,05,23,09,35,10.20
2008,05,23,09,36,10.20
2008,05,23,09,37,10.20
2008,05,23,09,38,10.20
2008,05,23,09,39,10.10
2008,05,23,09,40,10.10
2008,05,23,09,41,10.10
2008,05,23,09,42,10.10
2008,05,23,09,43,10.10
2008,05,23,09,44,9.90
2008,05,23,09,45,9.90
2008,05,23,09,46,9.90
2008,05,23,09,47,9.90
2008,05,23,09,48,9.90
2008,05,23,09,49,9.90
2008,05,23,09,50,9.90
2008,05,23,09,51,9.90
2008,05,23,09,52,10.00
2008,05,23,09,53,10.10
2008,05,23,09,54,10.10
2008,05,23,09,55,10.20
2008,05,23,09,56,10.20
2008,05,23,09,57,10.30
2008,05,23,09,58,10.40
2008,05,23,09,59,10.50
2008,05,23,10,00,10.60
2008,05,23,10,01,10.70
2008,05,23,10,02,10.80
2008,05,23,10,03,10.90
2008,05,23,10,04,10.90
2008,05,23,10,05,11.00
2008,05,23,10,06,11.10
2008,05,23,10,07,11.10
2008,05,23,10,08,11.10
2008,05,23,10,09,11.20
2008,05,23,10,10,11.20
2008,05,23,10,11,11.20
2008,05,23,10,12,11.30
2008,05,23,10,13,11.30
2008,05,23,10,14,11.40
2008,05,23,10,15,11.40
2008,05,23,10,16,11.50
2008,05,23,10,17,11.60
2008,05,23,10,18,11.60
2008,05,23,10,19,11.60
2008,05,23,10,20,11.70
2008,05,23,10,21,11.70
2008,05,23,10,22,11.70
2008,05,23,10,23,11.70
2008,05,23,10,24,11.70
2008,05,23,10,25,11.70
2008,05,23,10,26,11.60
2008,05,23,10,27,11.60
2008,05,23,10,28,11.60
2008,05,23,10,29,11.50
2008,05,23,10,30,11.30
2008,05,23,10,31,11.20
2008,05,23,10,32,11.10
2008,05,23,10,33,10.90
2008,05,23,10,34,10.90
2008,05,23,10,35,10.70
2008,05,23,10,36,10.70
2008,05,23,10,37,10.70
2008,05,23,10,38,10.80
2008,05,23,10,39,10.80
2008,05,23,10,40,11.00
2008,05,23,10,41,11.10
2008,05,23,10,42,11.20
2008,05,23,10,43,11.20
2008,05,23,10,44,11.30
2008,05,23,10,45,11.50
2008,05,23,10,46,11.60
2008,05,23,10,47,11.80
2008,05,23,10,48,12.00
2008,05,23,10,49,12.10
2008,05,23,10,50,12.10
2008,05,23,10,51,12.10
2008,05,23,10,52,12.00
2008,05,23,10,53,12.00
2008,05,23,10,54,12.00
2008,05,23,10,55,12.00
2008,05,23,10,56,12.10
2008,05,23,10,57,12.10
2008,05,23,10,58,12.10
2008,05,23,10,59,12.00
2008,05,23,11,00,12.00
2008,05,23,11,01,12.00
2008,05,23,11,02,12.00
2008,05,23,11,03,12.10
2008,05,23,11,04,12.00
2008,05,23,11,05,12.00
2008,05,23,11,06,12.00
2008,05,23,11,07,12.10
2008,05,23,11,08,12.20
2008,05,23,11,09,12.20
2008,05,23,11,10,12.30
2008,05,23,11,11,12.30
2008,05,23,11,12,12.30
2008,05,23,11,13,12.40
2008,05,23,11,14,12.50
2008,05,23,11,15,12.50
2008,05,23,11,16,12.60
2008,05,23,11,17,12.70
2008,05,23,11,18,12.80
2008,05,23,11,19,12.80
2008,05,23,11,20,12.80
2008,05,23,11,21,12.80
2008,05,23,11,22,12.90
2008,05,23,11,23,12.90
2008,05,23,11,24,12.90
2008,05,23,11,25,12.90
2008,05,23,11,26,12.90
2008,05,23,11,27,12.90
2008,05,23,11,28,12.80
2008,05,23,11,29,12.80
2008,05,23,11,30,12.80
2008,05,23,11,31,12.80
2008,05,23,11,32,12.70
2008,05,23,11,33,12.60
2008,05,23,11,34,12.50
2008,05,23,11,35,12.50
2008,05,23,11,36,12.50
2008,05,23,11,37,12.50
2008,05,23,11,38,12.50
2008,05,23,11,39,12.60
2008,05,23,11,40,12.60
2008,05,23,11,41,12.60
2008,05,23,11,42,12.70
2008,05,23,11,43,12.70
2008,05,23,11,44,12.80
2008,05,23,11,45,12.80
2008,05,23,11,46,12.80
2008,05,23,11,47,12.90
2008,05,23,11,48,13.00
2008,05,23,11,49,13.00
2008,05,23,11,50,13.10
2008,05,23,11,51,13.20
2008,05,23,11,52,13.20
2008,05,23,11,53,13.30
2008,05,23,11,54,13.40
2008,05,23,11,55,13.50
2008,05,23,11,56,13.60
2008,05,23,11,57,13.60
2008,05,23,11,58,13.70
2008,05,23,11,59,13.70
2008,05,23,12,00,13.80
2008,05,23,12,01,13.90
2008,05,23,12,02,14.00
2008,05,23,12,03,14.10
2008,05,23,12,04,14.20
2008,05,23,12,05,14.20
2008,05,23,12,06,14.20
2008,05,23,12,07,14.20
2008,05,23,12,08,14.20
2008,05,23,12,09,14.10
2008,05,23,12,10,14.00
2008,05,23,12,11,13.90
2008,05,23,12,12,13.90
2008,05,23,12,13,13.90
2008,05,23,12,14,13.80
2008,05,23,12,15,13.80
2008,05,23,12,16,13.80
2008,05,23,12,17,13.80
2008,05,23,12,18,13.80
2008,05,23,12,19,13.80
2008,05,23,12,20,13.80
2008,05,23,12,21,13.90
2008,05,23,12,22,13.90
2008,05,23,12,23,13.80
2008,05,23,12,24,13.90
2008,05,23,12,25,13.90
2008,05,23,12,26,14.00
2008,05,23,12,27,14.00
2008,05,23,12,28,14.20
2008,05,23,12,29,14.30
2008,05,23,12,30,14.40
2008,05,23,12,31,14.60
2008,05,23,12,32,14.80
2008,05,23,12,33,14.90
2008,05,23,12,34,15.10
2008,05,23,12,35,15.30
2008,05,23,12,36,15.50
2008,05,23,12,37,15.70
2008,05,23,12,38,15.90
2008,05,23,12,39,16.00
2008,05,23,12,40,16.10
2008,05,23,12,41,16.10
2008,05,23,12,42,16.10
2008,05,23,12,43,16.10
2008,05,23,12,44,16.10
2008,05,23,12,45,16.20
2008,05,23,12,46,16.30
2008,05,23,12,47,16.20
2008,05,23,12,48,16.10
2008,05,23,12,49,16.10
2008,05,23,12,50,15.90
2008,05,23,12,51,15.80
2008,05,23,12,52,15.70
2008,05,23,12,53,15.60
2008,05,23,12,54,15.60
2008,05,23,12,55,15.60
2008,05,23,12,56,15.60
2008,05,23,12,57,15.70
2008,05,23,12,58,15.80
2008,05,23,12,59,16.00
2008,05,23,13,00,16.30
2008,05,23,13,01,16.50
2008,05,23,13,02,16.70
2008,05,23,13,03,16.80
2008,05,23,13,04,16.90
2008,05,23,13,05,17.00
2008,05,23,13,06,17.10
2008,05,23,13,07,17.20
2008,05,23,13,08,17.20
2008,05,23,13,09,17.20
2008,05,23,13,10,17.30
2008,05,23,13,11,17.40
2008,05,23,13,12,17.40
2008,05,23,13,13,17.60
2008,05,23,13,14,17.80
2008,05,23,13,15,17.90
2008,05,23,13,16,17.90
2008,05,23,13,17,17.90
2008,05,23,13,18,18.10
2008,05,23,13,19,18.10
2008,05,23,13,20,18.10
2008,05,23,13,21,18.00
2008,05,23,13,22,17.90
2008,05,23,13,23,17.90
2008,05,23,13,24,17.90
2008,05,23,13,25,17.90
2008,05,23,13,26,17.80
2008,05,23,13,27,17.80
2008,05,23,13,28,17.90
2008,05,23,13,29,17.90
2008,05,23,13,30,18.00
2008,05,23,13,31,17.90
2008,05,23,13,32,17.90
2008,05,23,13,33,17.90
2008,05,23,13,34,17.80
2008,05,23,13,35,17.80
2008,05,23,13,36,17.80
2008,05,23,13,37,17.70
2008,05,23,13,38,17.70
2008,05,23,13,39,17.70
2008,05,23,13,40,17.70
2008,05,23,13,41,17.70
2008,05,23,13,42,17.50
2008,05,23,13,43,17.30
2008,05,23,13,44,17.30
2008,05,23,13,45,17.20
2008,05,23,13,46,17.20
2008,05,23,13,47,17.20
2008,05,23,13,48,17.20
2008,05,23,13,49,17.30
2008,05,23,13,50,17.30
2008,05,23,13,51,17.40
2008,05,23,13,52,17.50
2008,05,23,13,53,17.60
2008,05,23,13,54,17.60
2008,05,23,13,55,17.60
2008,05,23,13,56,17.50
2008,05,23,13,57,17.50
2008,05,23,13,58,17.40
2008,05,23,13,59,17.40
2008,05,23,14,00,17.30
2008,05,23,14,01,17.30
2008,05,23,14,02,17.30
2008,05,23,14,03,17.30
2008,05,23,14,04,17.30
2008,05,23,14,05,17.30
2008,05,23,14,06,17.30
2008,05,23,14,07,17.30
2008,05,23,14,08,17.30
2008,05,23,14,09,17.30
2008,05,23,14,10,17.30
2008,05,23,14,11,17.30
2008,05,23,14,12,17.20
2008,05,23,14,13,17.10
2008,05,23,14,14,17.20
2008,05,23,14,15,17.10
2008,05,23,14,16,17.10
2008,05,23,14,17,17.10
2008,05,23,14,18,17.20
2008,05,23,14,19,17.20
2008,05,23,14,20,17.20
2008,05,23,14,21,17.20
2008,05,23,14,22,17.20
2008,05,23,14,23,17.20
2008,05,23,14,24,17.20
2008,05,23,14,25,17.20
2008,05,23,14,26,17.30
2008,05,23,14,27,17.30
2008,05,23,14,28,17.30
2008,05,23,14,29,17.30
2008,05,23,14,30,17.40
2008,05,23,14,31,17.40
2008,05,23,14,32,17.50
2008,05,23,14,33,17.50
2008,05,23,14,34,17.50
2008,05,23,14,35,17.40
2008,05,23,14,36,17.40
2008,05,23,14,37,17.40
2008,05,23,14,38,17.40
2008,05,23,14,39,17.40
2008,05,23,14,40,17.40
2008,05,23,14,41,17.40
2008,05,23,14,42,17.40
2008,05,23,14,43,17.50
2008,05,23,14,44,17.50
2008,05,23,14,45,17.60
2008,05,23,14,46,17.60
2008,05,23,14,47,17.60
2008,05,23,14,48,17.50
2008,05,23,14,49,17.50
2008,05,23,14,50,17.50
2008,05,23,14,51,17.50
2008,05,23,14,52,17.50
2008,05,23,14,53,17.50
2008,05,23,14,54,17.50
2008,05,23,14,55,17.50
2008,05,23,14,56,17.50
2008,05,23,14,57,17.50
2008,05,23,14,58,17.50
2008,05,23,14,59,17.50
2008,05,23,15,00,17.40
2008,05,23,15,01,17.40
2008,05,23,15,02,17.50
2008,05,23,15,03,17.50
2008,05,23,15,04,17.50
2008,05,23,15,05,17.50
2008,05,23,15,06,17.60
2008,05,23,15,07,17.60
2008,05,23,15,08,17.70
2008,05,23,15,09,17.70
2008,05,23,15,10,17.70
2008,05,23,15,11,17.80
2008,05,23,15,12,17.80
2008,05,23,15,13,17.90
2008,05,23,15,14,17.90
2008,05,23,15,15,18.10
2008,05,23,15,16,18.20
2008,05,23,15,17,18.30
2008,05,23,15,18,18.30
2008,05,23,15,19,18.40
2008,05,23,15,20,18.40
2008,05,23,15,21,18.40
2008,05,23,15,22,18.30
2008,05,23,15,23,18.30
2008,05,23,15,24,18.20
2008,05,23,15,25,18.20
2008,05,23,15,26,18.20
2008,05,23,15,27,18.20
2008,05,23,15,28,18.20
2008,05,23,15,29,18.20
2008,05,23,15,30,18.20
2008,05,23,15,31,18.20
2008,05,23,15,32,18.20
2008,05,23,15,33,18.20
2008,05,23,15,34,18.30
2008,05,23,15,35,18.40
2008,05,23,15,36,18.40
2008,05,23,15,37,18.40
2008,05,23,15,38,18.40
2008,05,23,15,39,18.40
2008,05,23,15,40,18.40
2008,05,23,15,41,18.40
2008,05,23,15,42,18.30
2008,05,23,15,43,18.30
2008,05,23,15,44,18.30
2008,05,23,15,45,18.20
2008,05,23,15,46,18.10
2008,05,23,15,47,18.00
2008,05,23,15,48,17.90
2008,05,23,15,49,17.80
2008,05,23,15,50,17.70
2008,05,23,15,51,17.60
2008,05,23,15,52,17.50
2008,05,23,15,53,17.50
2008,05,23,15,54,17.40
2008,05,23,15,55,17.40
2008,05,23,15,56,17.30
2008,05,23,15,57,17.30
2008,05,23,15,58,17.30
2008,05,23,15,59,17.30
2008,05,23,16,00,17.20
2008,05,23,16,01,17.10
2008,05,23,16,02,17.00
2008,05,23,16,03,17.00
2008,05,23,16,04,16.90
2008,05,23,16,05,16.90
2008,05,23,16,06,16.90
2008,05,23,16,07,16.90
2008,05,23,16,08,17.00
2008,05,23,16,09,16.90
2008,05,23,16,10,16.90
2008,05,23,16,11,16.90
2008,05,23,16,12,16.90
2008,05,23,16,13,17.00
2008,05,23,16,14,17.00
2008,05,23,16,15,17.00
2008,05,23,16,16,17.10
2008,05,23,16,17,17.10
2008,05,23,16,18,17.10
2008,05,23,16,19,17.20
2008,05,23,16,20,17.20
2008,05,23,16,21,17.20
2008,05,23,16,22,17.20
2008,05,23,16,23,17.20
2008,05,23,16,24,17.20
2008,05,23,16,25,17.20
2008,05,23,16,26,17.20
2008,05,23,16,27,17.20
2008,05,23,16,28,17.30
2008,05,23,16,29,17.30
2008,05,23,16,30,17.30
2008,05,23,16,31,17.30
2008,05,23,16,32,17.30
2008,05,23,16,33,17.20
2008,05,23,16,34,17.10
2008,05,23,16,35,17.00
2008,05,23,16,36,17.00
2008,05,23,16,37,17.00
2008,05,23,16,38,17.00
2008,05,23,16,39,17.00
2008,05,23,16,40,17.00
2008,05,23,16,41,16.90
2008,05,23,16,42,16.90
2008,05,23,16,43,16.90
2008,05,23,16,44,16.90
2008,05,23,16,45,16.90
2008,05,23,16,46,16.90
2008,05,23,16,47,17.00
2008,05,23,16,48,17.00
2008,05,23,16,49,17.00
2008,05,23,16,50,17.10
2008,05,23,16,51,17.10
2008,05,23,16,52,17.10
2008,05,23,16,53,17.10
2008,05,23,16,54,17.20
2008,05,23,16,55,17.20
2008,05,23,16,56,17.30
2008,05,23,16,57,17.30
2008,05,23,16,58,17.30
2008,05,23,16,59,17.30
2008,05,23,17,00,17.30
2008,05,23,17,01,17.30
2008,05,23,17,02,17.30
2008,05,23,17,03,17.30
2008,05,23,17,04,17.30
2008,05,23,17,05,17.30
2008,05,23,17,06,17.30
2008,05,23,17,07,17.30
2008,05,23,17,08,17.30
2008,05,23,17,09,17.30
2008,05,23,17,10,17.30
2008,05,23,17,11,17.30
2008,05,23,17,12,17.30
2008,05,23,17,13,17.30
2008,05,23,17,14,17.30
2008,05,23,17,15,17.30
2008,05,23,17,16,17.30
2008,05,23,17,17,17.30
2008,05,23,17,18,17.30
2008,05,23,17,19,17.30
2008,05,23,17,20,17.30
2008,05,23,17,21,17.30
2008,05,23,17,22,17.30
2008,05,23,17,23,17.30
2008,05,23,17,24,17.30
2008,05,23,17,25,17.30
2008,05,23,17,26,17.30
2008,05,23,17,27,17.30
2008,05,23,17,28,17.40
2008,05,23,17,29,17.40
2008,05,23,17,30,17.40
2008,05,23,17,31,17.50
2008,05,23,17,32,17.50
2008,05,23,17,33,17.50
2008,05,23,17,34,17.60
2008,05,23,17,35,17.60
2008,05,23,17,36,17.70
2008,05,23,17,37,17.70
2008,05,23,17,38,17.70
2008,05,23,17,39,17.70
2008,05,23,17,40,17.70
2008,05,23,17,41,17.70